#timestamp,LO_Frequency,Hit,StdDev 
1699340415.3,286046980.1,N
1699340435.2,286046986.6,N
1699340455.0,286046984.6,N
1699340455.9,286046984.6,N
1699340475.8,286046980.9,N
1699340495.6,286046983.9,N
1699340515.4,286046986.2,N
1699340535.3,286046987.0,N
1699340555.1,286046987.7,N
1699340575.8,286046987.1,N
1699340595.7,286046985.4,N
1699340615.5,286046986.5,N
1699340635.4,286046978.5,Y
1699340655.2,286046987.0,P
1699340675.0,286046983.8,P
1699340675.9,286046983.8,P
1699340695.8,286046989.2,Y
1699340715.6,286047011.5,P
1699340735.5,286047009.9,N
1699340755.3,286047007.7,N
1699340775.1,286047010.1,N
1699340795.9,286047013.3,N
1699340815.7,286047018.6,N
1699340835.6,286047015.2,N
1699340855.4,286047014.2,N
1699340875.2,286047016.9,N
1699340895.1,286047018.0,N
1699340896.0,286047018.0,N
1699340915.8,286047016.1,N
1699340935.6,286047018.2,N
1699340955.5,286047015.9,N
1699340975.3,286047020.2,N
1699340995.2,286047022.9,N
1699341015.9,286047022.0,N
1699341035.7,286047019.1,N
1699341055.6,286047020.2,N
1699341075.4,286047016.5,N
1699341095.2,286047020.5,N
1699341115.1,286047020.3,N
1699341116.0,286047020.3,N
1699341135.8,286047022.8,Y
1699341155.7,286047006.9,P
1699341175.5,286047006.7,N
1699341195.3,286047008.3,N
1699341215.2,286047006.8,N
1699341235.0,286047006.9,N
1699341235.9,286047006.9,N
1699341255.7,286047028.2,Y
1699341275.6,286047001.9,P
1699341295.4,286047007.1,N
1699341315.3,286047008.4,P
1699341335.1,286047009.8,Y
1699341355.8,286046997.6,P
1699341375.7,286046994.1,N
1699341395.5,286046990.4,N
1699341415.3,286046992.2,N
1699341435.2,286046997.9,N
1699341455.0,286046993.3,N
1699341455.9,286046993.3,N
1699341475.8,286046998.0,N
1699341495.6,286046999.4,N
1699341515.4,286046992.0,N
1699341535.3,286046993.7,N
1699341555.1,286046997.8,N
1699341575.8,286046997.6,N
1699341595.7,286046994.0,N
1699341615.5,286046994.0,N
1699341635.4,286047000.7,N
1699341655.2,286047004.4,N
1699341675.0,286047003.2,N
1699341675.9,286047003.2,N
1699341695.8,286047003.3,N
1699341715.6,286047008.3,N
1699341735.4,286047012.1,N
1699341755.3,286047013.3,N
1699341775.1,286047006.2,N
1699341795.9,286047005.5,N
1699341815.7,286047008.9,N
1699341835.5,286047003.2,N
1699341855.4,286047001.8,N
1699341875.2,286046992.0,N
1699341895.0,286047000.7,N
1699341896.0,286047000.7,N
1699341915.8,286047001.9,N
1699341935.6,286047002.8,N
1699341955.5,286046997.0,N
1699341975.3,286046999.4,N
1699341995.1,286047010.3,N
1699342015.9,286047004.9,N
1699342035.7,286047005.2,N
1699342055.6,286047006.7,N
1699342075.4,286047002.4,N
1699342095.2,286046997.9,N
1699342115.1,286046995.4,N
1699342116.0,286046995.4,N
1699342135.8,286046999.3,N
1699342155.6,286046996.6,N
1699342175.5,286046995.7,N
1699342195.3,286046991.9,N
1699342215.2,286046989.1,N
1699342235.9,286046982.6,N
1699342255.8,286046984.9,N
1699342275.6,286046986.1,N
1699342295.4,286046987.0,N
1699342315.3,286046980.6,N
1699342335.1,286046976.8,N
1699342355.8,286046979.1,N
1699342375.7,286046985.7,N
1699342395.5,286046987.3,N
1699342415.4,286046982.8,N
1699342435.2,286046979.7,N
1699342455.0,286046978.3,N
1699342455.9,286046978.3,N
1699342475.8,286046979.9,N
1699342495.6,286046980.2,N
1699342515.4,286046981.2,N
1699342535.3,286046984.3,N
1699342555.1,286046987.4,N
1699342575.9,286046984.3,N
1699342595.7,286046986.5,N
1699342615.5,286046986.3,N
1699342635.4,286046984.3,N
1699342655.2,286046982.3,N
1699342675.0,286046982.6,N
1699342676.0,286046982.6,Y
1699342695.8,286046999.1,P
1699342715.6,286047003.4,N
1699342735.5,286047010.1,N
1699342755.3,286047007.5,N
1699342775.1,286047004.1,N
1699342795.9,286047005.1,N
1699342815.7,286047003.4,N
1699342835.6,286047001.9,N
1699342855.4,286047005.3,N
1699342875.2,286047003.2,N
1699342895.1,286047005.2,N
1699342896.0,286047005.2,N
1699342915.8,286047005.2,N
1699342935.6,286047005.8,N
1699342955.5,286047000.0,N
1699342975.3,286046998.2,N
1699342995.2,286046999.5,N
1699343015.9,286046998.0,N
1699343035.7,286046990.6,N
1699343055.6,286046990.7,N
1699343075.4,286046990.9,N
1699343095.2,286046990.3,N
1699343115.1,286046991.8,N
1699343116.0,286046991.8,N
1699343135.8,286046987.4,N
1699343155.7,286046988.9,N
1699343175.5,286046993.2,N
1699343195.3,286046986.2,N
1699343215.2,286046987.3,N
1699343235.0,286046989.4,N
1699343235.9,286046989.4,N
1699343255.8,286046989.8,N
1699343275.6,286046990.1,N
1699343295.4,286046993.6,N
1699343315.3,286046990.3,N
1699343335.1,286046995.9,N
1699343355.8,286046996.3,N
1699343375.7,286046999.2,N
1699343395.5,286046998.9,N
1699343415.3,286046998.3,N
1699343435.2,286047006.5,N
1699343455.0,286047002.0,N
1699343455.9,286047002.0,N
1699343475.8,286046999.0,N
1699343495.6,286046997.2,N
1699343515.4,286046999.4,N
1699343535.3,286047000.9,N
1699343555.1,286046997.8,N
1699343575.9,286047002.4,N
1699343595.7,286047004.1,N
1699343615.5,286047001.5,N
1699343635.4,286046995.2,N
1699343655.2,286046994.8,N
1699343675.0,286046991.9,N
1699343675.9,286046991.9,N
1699343695.8,286046990.2,N
1699343715.6,286046995.1,N
1699343735.5,286047001.0,N
1699343755.3,286047005.4,N
1699343775.1,286047007.2,N
1699343795.9,286047000.7,N
1699343815.7,286046996.6,N
1699343835.5,286046994.4,N
1699343855.4,286046990.8,N
1699343875.2,286046990.0,N
1699343895.1,286046992.8,N
1699343896.0,286046992.8,N
1699343915.8,286046992.0,N
1699343935.6,286046991.0,N
1699343955.5,286046988.1,N
1699343975.3,286046987.4,N
1699343995.2,286046988.7,N
